Location: Harwich
(41.7160°N, 69.9939°W)
Time: 09:32:32
(UTC+02:00)

A-11 Canister half - Pass Details

Date: 02 March 2024
Orbit: 1513 x 1686 km, 47.2° (Epoch: 24 April)

Event Time Altitude Azimuth Distance (km) Brightness Sun altitude
Exits shadow 07:23:11 38° 60° (ENE) 2,356 10.1 -49.8°
Drops below altitude 10° 07:28:39 10° 68° (ENE) 3,896 11.5 -49.2°
Sets 07:31:46 0° 70° (ENE) 4,864 12.2 -48.8°
